Location: Boiro
(42.6475°N, 8.8834°W)
Time: 23:38:21
(UTC+02:00)

UKube-1 - Visible Passes

Search period start: 24 April 2024 00:00
Search period end: 04 May 2024 00:00
Orbit: 587 x 591 km, 98.3° (Epoch: 24 April)

Date Brightness Start Highest point End Pass type
(mag) Time Alt. Az. Time Alt. Az. Time Alt. Az.
24 Apr ? 04:03:10 10° N 04:05:11 26° NNW 04:05:11 26° NNW visible
25 Apr ? 02:36:28 10° NE 02:36:35 10° NE 02:36:35 10° NE visible
25 Apr ? 04:11:01 10° N 04:13:07 26° NNW 04:13:07 26° NNW visible
26 Apr ? 02:43:54 10° NE 02:44:30 13° NE 02:44:30 13° NE visible
26 Apr ? 04:18:51 10° N 04:21:01 25° NNW 04:21:01 25° NNW visible
27 Apr ? 02:51:22 10° NE 02:52:22 15° NE 02:52:22 15° NE visible
27 Apr ? 04:26:41 10° N 04:28:53 23° NW 04:28:53 23° NW visible
28 Apr ? 02:58:52 10° NE 03:00:13 18° NE 03:00:13 18° NE visible
28 Apr ? 04:34:31 10° NNW 04:36:44 21° NW 04:36:44 21° NW visible
29 Apr ? 03:06:22 10° NNE 03:08:01 21° NE 03:08:01 21° NE visible
29 Apr ? 04:42:22 10° NNW 04:44:33 19° NW 04:44:33 19° NW visible
30 Apr ? 03:13:53 10° NNE 03:15:48 24° NE 03:15:48 24° NE visible
30 Apr ? 04:50:15 10° NNW 04:52:19 16° NW 04:52:19 16° NW visible
01 May ? 03:21:23 10° NNE 03:23:33 28° NE 03:23:33 28° NE visible
01 May ? 04:58:11 10° NNW 05:00:04 14° NW 05:00:04 14° NW visible
02 May ? 03:28:54 10° NNE 03:31:17 32° NNE 03:31:17 32° NNE visible
02 May ? 05:06:14 10° NW 05:07:48 12° WNW 05:07:48 12° WNW visible
03 May ? 03:36:24 10° NNE 03:38:58 37° NNE 03:38:58 37° NNE visible
03 May ? 05:14:43 10° NW 05:15:21 10° WNW 05:15:29 10° WNW visible
